SIRI09 ULLI-UWWW

Flight info

Callsign SIRI09
Flight time N/A
Altitude 30000
Route SUGI1B SUGIN T873 VUZPU T490 EZMUB T439 USTOK T464 RUBEK RUBE7S
Aircraft B738/M-S/LB1

Departure

Time N/A
Airport Pulkovo Airport (ULLI)

Arrival

Time 2026-05-01 09:59
Airport Kurumoch International Airport (UWWW)
Time Latitude Longitude Altitude Speed Heading
2026-05-01 09:26 55.00926 47.18539 31069 ft 473 kts 141°
2026-05-01 09:27 54.93320 47.29375 31065 ft 472 kts 141°
2026-05-01 09:28 54.88270 47.36541 31062 ft 472 kts 141°
2026-05-01 09:28 54.83176 47.43745 31060 ft 472 kts 141°
2026-05-01 09:29 54.75552 47.54476 31059 ft 472 kts 141°
2026-05-01 09:30 54.67917 47.65173 31063 ft 474 kts 142°
2026-05-01 09:30 54.60236 47.75876 31053 ft 472 kts 142°
2026-05-01 09:31 54.55122 47.82974 31041 ft 472 kts 142°
2026-05-01 09:32 54.47510 47.93497 31054 ft 472 kts 142°
2026-05-01 09:32 54.39807 48.04093 31042 ft 473 kts 143°
2026-05-01 09:33 54.34636 48.11173 31045 ft 474 kts 143°
2026-05-01 09:34 54.26948 48.21660 31046 ft 473 kts 143°
2026-05-01 09:34 54.19104 48.31939 31048 ft 473 kts 144°
2026-05-01 09:35 54.11235 48.42162 30894 ft 478 kts 144°
2026-05-01 09:35 54.08611 48.45562 30564 ft 466 kts 144°
2026-05-01 09:36 54.06105 48.48804 30209 ft 452 kts 144°
2026-05-01 09:36 54.03645 48.51979 29753 ft 442 kts 144°
2026-05-01 09:36 54.01215 48.55111 29277 ft 432 kts 144°
2026-05-01 09:36 53.98850 48.58154 28809 ft 423 kts 144°
2026-05-01 09:37 53.96529 48.61135 28334 ft 415 kts 144°
2026-05-01 09:37 53.92036 48.66902 27367 ft 401 kts 144°
2026-05-01 09:37 53.89811 48.69747 26842 ft 395 kts 144°
2026-05-01 09:38 53.85589 48.75142 25529 ft 369 kts 144°
2026-05-01 09:38 53.83585 48.77704 24856 ft 355 kts 144°
2026-05-01 09:38 53.81657 48.80162 24071 ft 343 kts 144°
2026-05-01 09:39 53.77924 48.84962 22536 ft 336 kts 137°
2026-05-01 09:39 53.76579 48.88127 21829 ft 330 kts 113°
2026-05-01 09:39 53.75949 48.91787 21131 ft 324 kts 106°
2026-05-01 09:40 53.75393 48.95452 20460 ft 326 kts 105°
2026-05-01 09:40 53.74286 49.02927 19020 ft 333 kts 105°
2026-05-01 09:40 53.73727 49.06728 18314 ft 335 kts 105°
2026-05-01 09:41 53.73161 49.10590 17595 ft 337 kts 104°
2026-05-01 09:41 53.72023 49.18317 16184 ft 339 kts 104°
2026-05-01 09:41 53.71460 49.22143 15488 ft 339 kts 104°
2026-05-01 09:42 53.70889 49.26009 14782 ft 339 kts 104°
2026-05-01 09:42 53.70318 49.29848 14085 ft 339 kts 104°
2026-05-01 09:42 53.69179 49.37494 12539 ft 330 kts 103°
2026-05-01 09:43 53.67292 49.44069 10971 ft 309 kts 139°
2026-05-01 09:43 53.65602 49.46228 10202 ft 300 kts 145°
2026-05-01 09:43 53.63931 49.48185 9422 ft 293 kts 145°
2026-05-01 09:44 53.60663 49.51933 7908 ft 273 kts 144°
2026-05-01 09:44 53.59201 49.53799 7126 ft 260 kts 128°
2026-05-01 09:44 53.58426 49.56384 6405 ft 244 kts 97°
2026-05-01 09:45 53.58462 49.59073 6034 ft 217 kts 75°
2026-05-01 09:45 53.59496 49.63479 6021 ft 204 kts 63°
2026-05-01 09:45 53.60152 49.65626 6021 ft 206 kts 62°
2026-05-01 09:46 53.60829 49.67742 6021 ft 206 kts 61°
2026-05-01 09:46 53.61518 49.69857 6022 ft 207 kts 61°
2026-05-01 09:46 53.62211 49.71971 6025 ft 207 kts 61°
2026-05-01 09:46 53.62916 49.74118 6021 ft 207 kts 61°
2026-05-01 09:47 53.63608 49.76218 6015 ft 206 kts 61°
2026-05-01 09:47 53.64300 49.78328 6017 ft 207 kts 61°
2026-05-01 09:47 53.64900 49.80502 6022 ft 206 kts 82°
2026-05-01 09:47 53.64730 49.82913 6053 ft 210 kts 116°
2026-05-01 09:48 53.63742 49.84722 6056 ft 215 kts 150°
2026-05-01 09:48 53.62403 49.85869 6025 ft 216 kts 149°
2026-05-01 09:48 53.61115 49.87046 5740 ft 203 kts 148°
2026-05-01 09:48 53.59899 49.88165 5467 ft 201 kts 148°
2026-05-01 09:49 53.58678 49.89296 5207 ft 203 kts 148°
2026-05-01 09:49 53.57425 49.90453 4917 ft 204 kts 148°
2026-05-01 09:49 53.56160 49.91505 4620 ft 207 kts 163°
2026-05-01 09:49 53.54739 49.91329 4546 ft 211 kts 201°
2026-05-01 09:50 53.53630 49.89767 4517 ft 211 kts 239°
2026-05-01 09:50 53.52938 49.87591 4538 ft 209 kts 242°
2026-05-01 09:50 53.52262 49.85492 4540 ft 213 kts 242°
2026-05-01 09:50 53.51539 49.83270 4516 ft 215 kts 242°
2026-05-01 09:51 53.50833 49.81119 4517 ft 211 kts 242°
2026-05-01 09:51 53.50120 49.78954 4520 ft 210 kts 242°
2026-05-01 09:51 53.49406 49.76791 4518 ft 211 kts 242°
2026-05-01 09:51 53.48537 49.74862 4510 ft 210 kts 214°
2026-05-01 09:52 53.47177 49.74120 4535 ft 208 kts 176°
2026-05-01 09:52 53.45837 49.74788 4543 ft 204 kts 150°
2026-05-01 09:52 53.44588 49.75860 4521 ft 203 kts 148°
2026-05-01 09:52 53.43337 49.76988 4514 ft 202 kts 148°
2026-05-01 09:53 53.42129 49.78091 4430 ft 206 kts 147°
2026-05-01 09:53 53.40897 49.79261 4036 ft 207 kts 140°
2026-05-01 09:53 53.40108 49.81098 3642 ft 196 kts 101°
2026-05-01 09:53 53.40169 49.83271 3257 ft 187 kts 67°
2026-05-01 09:54 53.40684 49.85229 2896 ft 179 kts 62°
2026-05-01 09:54 53.41222 49.87042 2528 ft 169 kts 60°
2026-05-01 09:54 53.41731 49.88672 2483 ft 146 kts 59°
2026-05-01 09:54 53.42204 49.90144 2542 ft 151 kts 59°
2026-05-01 09:55 53.42687 49.91694 2527 ft 155 kts 59°
2026-05-01 09:55 53.43182 49.93274 2508 ft 154 kts 59°
2026-05-01 09:55 53.43673 49.94843 2329 ft 150 kts 58°
2026-05-01 09:55 53.44175 49.96437 1855 ft 160 kts 58°
2026-05-01 09:56 53.44704 49.98117 1397 ft 166 kts 58°
2026-05-01 09:56 53.45184 49.99661 1681 ft 121 kts 58°
2026-05-01 09:56 53.45573 50.00890 2229 ft 129 kts 57°
2026-05-01 09:56 53.46040 50.02356 2581 ft 152 kts 59°
2026-05-01 09:57 53.46528 50.03919 2649 ft 153 kts 59°
2026-05-01 09:57 53.47036 50.05434 2499 ft 145 kts 57°
2026-05-01 09:57 53.47509 50.06831 2309 ft 131 kts 56°
2026-05-01 09:57 53.47948 50.08142 1950 ft 131 kts 56°
2026-05-01 09:58 53.48434 50.09444 1560 ft 131 kts 53°
2026-05-01 09:58 53.48901 50.10736 1198 ft 131 kts 57°
2026-05-01 09:58 53.49321 50.12011 899 ft 120 kts 55°
2026-05-01 09:58 53.49751 50.13244 607 ft 125 kts 56°
2026-05-01 09:59 53.50183 50.14482 457 ft 111 kts 58°
2026-05-01 09:59 53.50372 50.15123 447 ft 37 kts 62°
2026-05-01 09:59 53.50491 50.15496 440 ft 35 kts 62°
2026-05-01 09:59 53.50609 50.15853 430 ft 34 kts 60°
2026-05-01 10:00 53.50726 50.16211 420 ft 34 kts 60°
2026-05-01 10:00 53.50843 50.16573 412 ft 30 kts 61°
2026-05-01 10:00 53.50931 50.16750 411 ft 12 kts 355°
2026-05-01 10:00 53.50982 50.16661 413 ft 9 kts 302°
2026-05-01 10:01 53.51020 50.16554 416 ft 12 kts 302°
2026-05-01 10:01 53.51078 50.16400 419 ft 18 kts 302°
2026-05-01 10:01 53.51152 50.16186 420 ft 17 kts 285°
2026-05-01 10:01 53.51119 50.16029 423 ft 12 kts 242°
2026-05-01 10:02 53.51079 50.15905 424 ft 11 kts 239°
2026-05-01 10:02 53.51051 50.15821 426 ft 6 kts 241°
2026-05-01 10:02 53.51025 50.15773 428 ft 8 kts 203°
2026-05-01 10:02 53.50951 50.15810 428 ft 10 kts 147°
2026-05-01 10:03 53.50962 50.15876 426 ft 8 kts 342°